Flag for India Weather past 2 weeks in Ahmedabad, Gujarat, India

Now
64 °F

Clear.


Feels Like: 64 °F
Forecast: 56 / 77 °F
Wind: 5 mph from Northeast

Location: Ahmadabad Airport

Current Time: Dec 18, 2014 at 9:55:09 PM

Latest Report: Dec 18, 2014 at 8:40 PM


Visibility: 2 mi

Pressure: 30.07 "Hg

Humidity: 43%

Dew point: 41 °F

Location of AhmedabadLocation

Historic Weather in Ahmedabad — Graph

°F

Ahmedabad temperature yesterday

Maximum temperature yesterday: 77 °F (at 1:40 PM)
Minimum temperature yesterday: 54 °F (at 5:10 AM)
Average temperature yesterday: 64 °F

Past Weeks' High & Low Weather Summary

 TemperatureHumidityPressure
High91 °F (Dec 4, 1:10 PM)88% (Dec 13, 5:10 AM)30.18 "Hg (Dec 13, 5:10 AM)
Low46 °F (Dec 15, 5:40 AM)18% (Dec 15, 2:10 PM)29.80 "Hg (Dec 12, 4:10 PM)
Average70 °F49%29.97 "Hg
* Reported Dec 3 8:40 PM — Dec 18 8:40 PM, Ahmedabad, Weather by CustomWeather, © 2014

Note: Actual official high and low records may vary slightly from our data, if they occured in-between our weather recording intervals... More about our weather records

Advertising

Ahmedabad weather history for previous 24 hours

 ConditionsComfort  
Time TempWeatherWind HumidityBarometerVisibility
8:40 PM
Dec 18
64 °FClear.5 mph43%30.07 "Hg2 mi
7:40 PM66 °FClear.5 mph40%30.07 "Hg2 mi
7:10 PM66 °FClear.6 mph43%30.04 "Hg2 mi
6:40 PM68 °FClear.3 mph43%30.04 "Hg2 mi
6:10 PM70 °FClear.5 mph38%30.01 "Hg2 mi
4:40 PM77 °FClear.7 mph28%29.98 "Hg4 mi
3:40 PM79 °FClear.5 mph26%29.98 "Hg4 mi
3:10 PM79 °FClear.9 mph28%29.98 "Hg4 mi
2:10 PM79 °FClear.10 mph30%30.01 "Hg4 mi
1:40 PM77 °FClear.10 mph32%30.04 "Hg4 mi
1:10 PM75 °FClear.9 mph34%30.04 "Hg3 mi
12:40 PM75 °FClear.9 mph39%30.07 "Hg3 mi
11:40 AM72 °FClear.8 mph44%30.09 "Hg2 mi
11:10 AM70 °FClear.8 mph46%30.12 "Hg2 mi
10:40 AM68 °FClear.8 mph49%30.12 "Hg2 mi
10:10 AM66 °FClear.8 mph52%30.12 "Hg2 mi
9:10 AM59 °FHaze.7 mph59%30.12 "Hg1 mi
8:40 AM57 °FHaze.5 mph67%30.12 "Hg1 mi
8:10 AM54 °FScattered clouds.6 mph72%30.09 "Hg1 mi
7:40 AM50 °FHaze.6 mph82%30.09 "Hg1 mi
5:40 AM54 °FHaze.5 mph72%30.07 "Hg2 mi
5:10 AM54 °FHaze.6 mph72%30.04 "Hg2 mi
4:40 AM54 °FHaze.5 mph67%30.04 "Hg2 mi
3:40 AM55 °FHaze.6 mph63%30.04 "Hg2 mi
3:10 AM55 °FClear.6 mph63%30.04 "Hg2 mi
2:40 AM57 °FClear.6 mph59%30.07 "Hg2 mi
1:40 AM59 °FClear.6 mph51%30.07 "Hg2 mi
11:40 PM
Dec 17
61 °FClear.6 mph45%30.07 "Hg2 mi
10:40 PM63 °FClear.6 mph45%30.09 "Hg2 mi
10:10 PM63 °FClear.6 mph45%30.09 "Hg2 mi
9:40 PM63 °FClear.6 mph45%30.09 "Hg2 mi
9:10 PM63 °FClear.6 mph45%30.07 "Hg2 mi
Weather by CustomWeather, © 2014

See weather overviewHow to use our weather pages